Location: Oulou
(10.7667°N, 12.5167°W)
Time: 02:55:25
(UTC+00:00)

Okean 1 Rocket - Pass Details

Date: 20 September 2019
Orbit: 608 x 633 km, 82.5° (Epoch: 18 October)

Event Time Altitude Azimuth Distance (km) Brightness Sun altitude
Rises 19:20:59 0° 181° (S) 2,857 6.5 -9.0°
Reaches altitude 10° 19:23:12 10° 180° (S) 1,952 5.6 -9.6°
Maximum altitude 19:27:30 78° 93° (E) 622 2.9 -10.6°
Drops below altitude 10° 19:31:49 10° 8° (N) 1,953 5.6 -11.7°
Sets 19:34:02 0° 6° (N) 2,858 6.4 -12.2°
